Temp
-12 -12 -12 -11 -11 -12 -11 -11 -10 -9 -9 -8 -8 -8 -8 -8 -8 -9 -9 -9 -9 -10 -10 -10 -9 -10 -10 -11 -10 -10 -10 -10 -10 -10 -9 -9 -9 -8 -7 -6 -5 -6 -6 -6 -6 -5 -5 -5 -4 -4 -6 -5 -5 -5
-12 -12 -12 -11 -11 -12 -12 -11 -10 -10 -9 -9 -9 -8 -9 -9 -9 -10 -10 -9 -9 -9 -9 -9 -9 -9 -9 -9 -10 -11 -11 -11 -10 -10 -10 -9 -10 -8 -8 -6 -6 -6 -6 -6 -6 -8 -7 -6 -6 -6 -5 -5 -5 -5
-12 -12 -12 -12 -12 -12 -12 -11 -10 -10 -10 -9 -9 -9 -9 -9 -10 -10 -12 -10 -10 -9 -9 -9 -10 -9 -9 -9 -9 -10 -11 -10 -10 -10 -10 -10 -10 -8 -8 -8 -8 -7 -7 -7 -7 -7 -7 -6 -6 -6 -6 -6 -6 -5
-13 -12 -12 -12 -12 -13 -13 -12 -11 -10 -10 -10 -10 -10 -10 -10 -10 -10 -11 -11 -10 -10 -10 -10 -10 -10 -10 -9 -9 -10 -9 -10 -10 -11 -11 -10 -10 -9 -8 -8 -8 -8 -8 -7 -8 -7 -7 -7 -6 -7 -7 -7 -7 -7
-13 -13 -13 -12 -13 -13 -13 -12 -11 -11 -11 -10 -10 -10 -10 -11 -11 -11 -11 -11 -12 -11 -10 -10 -10 -10 -10 -10 -10 -10 -10 -10 -11 -11 -11 -10 -10 -9 -9 -8 -8 -8 -8 -8 -9 -8 -8 -7 -7 -7 -7 -7 -7 -7
-14 -13 -13 -13 -13 -13 -13 -12 -11 -11 -12 -11 -11 -11 -11 -11 -11 -12 -11 -11 -12 -12 -11 -10 -10 -10 -10 -10 -10 -10 -10 -10 -10 -10 -10 -9 -9 -9 -9 -8 -8 -9 -9 -9 -8 -8 -8 -8 -8 -8 -8 -8 -7 -7
-14 -14 -13 -13 -13 -13 -13 -12 -12 -13 -13 -13 -12 -11 -11 -11 -12 -12 -12 -12 -11 -11 -11 -11 -11 -10 -10 -10 -10 -11 -11 -11 -10 -10 -9 -10 -10 -9 -9 -9 -9 -9 -9 -9 -9 -9 -9 -8 -8 -8 -8 -8 -8 -8
-15 -14 -13 -13 -13 -13 -13 -13 -13 -13 -14 -14 -12 -12 -12 -12 -12 -12 -12 -12 -12 -11 -12 -11 -11 -11 -10 -10 -11 -11 -11 -10 -10 -10 -10 -10 -9 -9 -9 -9 -9 -9 -9 -9 -9 -9 -9 -8 -8 -8 -8 -7 -7 -7
-15 -14 -13 -13 -13 -13 -13 -13 -14 -14 -14 -14 -13 -13 -12 -12 -11 -11 -12 -12 -12 -12 -12 -11 -11 -11 -10 -10 -11 -11 -11 -10 -10 -10 -9 -9 -9 -9 -8 -8 -9 -9 -10 -9 -9 -9 -9 -9 -8 -8 -8 -7 -7 -7
-15 -14 -13 -13 -14 -13 -13 -13 -14 -14 -14 -13 -13 -13 -12 -11 -12 -12 -12 -12 -12 -11 -11 -11 -11 -11 -10 -10 -11 -11 -10 -10 -10 -9 -9 -10 -9 -9 -9 -9 -9 -9 -9 -10 -10 -9 -9 -9 -8 -8 -8 -8 -8 -8
-15 -14 -14 -14 -14 -14 -13 -14 -14 -14 -14 -13 -13 -12 -12 -12 -12 -12 -11 -12 -11 -11 -11 -10 -11 -11 -10 -10 -10 -10 -10 -10 -9 -9 -9 -9 -9 -8 -9 -9 -8 -9 -9 -9 -9 -9 -9 -8 -8 -8 -8 -8 -8 -8
-15 -14 -14 -14 -14 -14 -14 -14 -14 -14 -13 -13 -13 -12 -12 -12 -12 -11 -12 -12 -11 -11 -11 -11 -11 -11 -10 -10 -10 -10 -10 -9 -9 -9 -9 -9 -7 -8 -8 -8 -8 -8 -8 -9 -8 -8 -8 -8 -8 -8 -9 -9 -9 -9
-15 -14 -14 -14 -14 -14 -14 -14 -15 -14 -13 -12 -12 -12 -12 -12 -12 -11 -12 -12 -11 -11 -10 -11 -11 -11 -10 -10 -10 -10 -9 -9 -9 -9 -8 -7 -7 -8 -8 -8 -8 -8 -8 -9 -9 -9 -8 -9 -9 -9 -9 -9 -10 -10
-15 -15 -15 -14 -15 -14 -14 -14 -14 -13 -13 -12 -12 -12 -11 -11 -11 -11 -10 -11 -11 -10 -10 -10 -10 -10 -10 -10 -10 -9 -9 -9 -8 -8 -8 -7 -8 -8 -8 -8 -8 -8 -8 -8 -9 -9 -9 -9 -9 -10 -10 -10 -11 -11
-15 -15 -15 -15 -14 -14 -14 -14 -13 -13 -12 -12 -11 -11 -11 -11 -10 -10 -10 -10 -10 -10 -10 -10 -10 -10 -10 -10 -9 -9 -9 -8 -8 -8 -7 -8 -8 -8 -8 -8 -8 -8 -9 -9 -9 -9 -10 -10 -11 -11 -11 -12 -12 -12
-15 -15 -15 -15 -14 -14 -14 -14 -13 -12 -13 -12 -11 -11 -11 -11 -10 -10 -10 -10 -10 -10 -10 -10 -10 -10 -9 -9 -9 -9 -9 -8 -7 -8 -8 -8 -8 -8 -9 -9 -8 -8 -9 -9 -10 -10 -11 -11 -11 -12 -12 -13 -13 -13
-15 -15 -15 -15 -15 -15 -14 -13 -13 -13 -12 -12 -11 -10 -10 -10 -10 -10 -10 -10 -10 -10 -10 -10 -9 -9 -9 -9 -9 -9 -9 -8 -8 -8 -8 -8 -8 -8 -8 -9 -9 -10 -10 -10 -11 -11 -11 -12 -12 -13 -13 -13 -14 -14
-15 -15 -15 -14 -14 -14 -13 -13 -12 -12 -12 -12 -11 -10 -10 -10 -10 -10 -10 -10 -10 -10 -10 -9 -9 -9 -9 -9 -9 -8 -8 -8 -8 -8 -8 -8 -9 -9 -9 -10 -10 -10 -11 -11 -12 -12 -13 -13 -13 -14 -14 -14 -14 -15
-14 -15 -14 -14 -14 -13 -13 -13 -12 -12 -11 -11 -10 -10 -10 -10 -10 -9 -9 -9 -9 -9 -10 -9 -9 -9 -9 -9 -8 -8 -8 -8 -8 -8 -8 -9 -9 -10 -10 -11 -11 -11 -12 -12 -12 -13 -13 -13 -14 -14 -14 -15 -15 -15
-14 -14 -13 -13 -13 -13 -13 -12 -12 -11 -11 -10 -10 -10 -10 -10 -10 -9 -9 -9 -9 -10 -10 -10 -9 -9 -9 -9 -9 -9 -9 -9 -9 -9 -9 -9 -10 -10 -10 -11 -11 -11 -12 -12 -13 -13 -13 -14 -14 -15 -15 -16 -16 -17
-14 -14 -13 -13 -13 -12 -12 -12 -12 -12 -11 -11 -10 -10 -10 -10 -9 -9 -10 -10 -10 -10 -10 -9 -9 -9 -9 -9 -9 -9 -9 -9 -9 -9 -9 -10 -10 -10 -11 -11 -11 -12 -12 -13 -13 -13 -14 -14 -15 -15 -16 -17 -17 -18
-13 -13 -13 -13 -12 -12 -12 -11 -11 -11 -11 -10 -10 -10 -10 -10 -10 -10 -10 -10 -9 -8 -8 -9 -9 -9 -9 -9 -9 -10 -9 -9 -9 -10 -10 -10 -10 -11 -11 -11 -12 -12 -12 -13 -13 -14 -15 -15 -16 -16 -17 -17 -18 -18
-13 -13 -13 -12 -12 -12 -11 -11 -11 -10 -10 -10 -10 -10 -10 -10 -9 -10 -10 -9 -8 -8 -9 -9 -9 -9 -10 -10 -10 -10 -10 -10 -10 -10 -10 -11 -11 -11 -11 -12 -12 -13 -13 -14 -15 -15 -15 -16 -17 -17 -18 -18 -19 -19
-13 -13 -12 -12 -12 -11 -11 -11 -11 -11 -10 -10 -10 -10 -9 -9 -9 -9 -9 -8 -8 -9 -8 -9 -9 -9 -10 -10 -10 -10 -10 -10 -11 -11 -11 -11 -11 -12 -12 -12 -13 -13 -14 -14 -15 -15 -16 -17 -18 -18 -18 -19 -19 -20
-12 -12 -12 -12 -11 -11 -11 -10 -10 -10 -10 -10 -10 -10 -9 -9 -9 -9 -9 -7 -8 -8 -8 -9 -9 -10 -10 -10 -10 -10 -11 -11 -11 -11 -11 -12 -12 -12 -13 -13 -13 -14 -15 -15 -16 -16 -17 -18 -18 -19 -19 -20 -20 -20
-11 -12 -11 -11 -11 -11 -10 -10 -10 -10 -10 -10 -10 -9 -9 -9 -10 -9 -8 -7 -8 -8 -9 -9 -10 -10 -10 -10 -11 -11 -11 -11 -12 -12 -12 -12 -12 -13 -13 -13 -14 -15 -15 -16 -17 -17 -18 -18 -19 -19 -20 -20 -20 -21
-12 -11 -11 -11 -10 -10 -10 -10 -10 -10 -10 -10 -10 -10 -10 -10 -10 -8 -8 -8 -8 -9 -9 -9 -10 -10 -10 -10 -11 -11 -12 -12 -12 -12 -12 -13 -13 -13 -14 -14 -15 -15 -16 -17 -17 -18 -19 -19 -19 -20 -20 -21 -21 -22
-11 -11 -11 -10 -10 -10 -10 -10 -10 -10 -10 -10 -10 -10 -10 -10 -8 -9 -9 -8 -9 -9 -9 -10 -10 -10 -10 -11 -12 -12 -12 -12 -13 -13 -13 -13 -14 -14 -14 -15 -15 -16 -17 -17 -18 -19 -19 -20 -20 -21 -21 -22 -22 -23
-11 -11 -11 -10 -10 -10 -10 -10 -11 -10 -10 -10 -10 -10 -10 -9 -9 -9 -9 -9 -9 -9 -9 -10 -11 -11 -12 -12 -12 -13 -13 -13 -13 -13 -14 -14 -14 -14 -15 -15 -16 -17 -18 -18 -19 -19 -20 -20 -21 -21 -22 -22 -23 -23
-11 -11 -11 -11 -11 -11 -10 -10 -10 -10 -11 -11 -11 -11 -11 -10 -11 -10 -10 -10 -9 -9 -10 -11 -11 -12 -12 -13 -13 -14 -14 -14 -14 -14 -14 -14 -15 -15 -16 -16 -17 -18 -18 -19 -19 -20 -20 -21 -22 -22 -22 -23 -23 -24
-11 -11 -11 -11 -11 -11 -11 -11 -11 -11 -11 -11 -12 -12 -11 -11 -11 -11 -11 -10 -10 -10 -11 -12 -12 -13 -13 -13 -14 -14 -14 -14 -14 -15 -15 -15 -15 -16 -16 -17 -18 -18 -19 -19 -20 -21 -21 -22 -22 -23 -23 -23 -24 -24
-12 -12 -12 -12 -11 -11 -12 -12 -12 -12 -11 -12 -12 -12 -12 -13 -12 -12 -11 -11 -11 -11 -11 -13 -13 -13 -14 -14 -15 -15 -15 -15 -15 -15 -15 -16 -16 -17 -17 -18 -19 -19 -20 -20 -21 -21 -22 -22 -23 -23 -23 -24 -24 -25
-13 -13 -13 -13 -12 -12 -12 -12 -12 -13 -12 -13 -13 -14 -14 -14 -13 -12 -12 -12 -12 -11 -12 -13 -14 -14 -14 -15 -15 -15 -15 -15 -15 -15 -16 -16 -17 -18 -18 -19 -19 -20 -20 -21 -21 -22 -22 -23 -23 -23 -24 -24 -25 -25
Height
2912 2916 2921 2927 2931 2935 2939 2942 2946 2950 2955 2959 2964 2967 2970 2973 2974 2976 2977 2979 2981 2984 2986 2988 2989 2991 2993 2993 2994 2993 2993 2990 2989 2987 2985 2982 2977 2973 2966 2962 2965 2968 2969 2967 2964 2958 2959 2962 2961 2962 2969 2969 2970 2969
2910 2914 2919 2924 2929 2933 2936 2940 2943 2948 2952 2957 2961 2965 2968 2971 2972 2975 2977 2979 2982 2984 2986 2987 2988 2989 2989 2989 2990 2990 2991 2991 2989 2988 2987 2983 2978 2971 2969 2966 2967 2968 2965 2962 2964 2964 2963 2963 2964 2966 2968 2969 2968 2968
2906 2912 2917 2922 2926 2930 2934 2937 2941 2945 2950 2954 2958 2962 2966 2969 2971 2974 2976 2979 2982 2984 2987 2988 2988 2989 2988 2988 2988 2989 2990 2989 2988 2988 2986 2984 2979 2976 2972 2970 2967 2965 2966 2966 2967 2968 2966 2964 2964 2964 2965 2967 2968 2968
2901 2908 2914 2919 2924 2928 2930 2934 2938 2943 2948 2952 2956 2961 2964 2967 2970 2973 2976 2979 2982 2984 2985 2988 2987 2988 2988 2988 2987 2987 2987 2987 2987 2987 2986 2983 2981 2979 2975 2973 2970 2971 2971 2969 2969 2969 2968 2968 2967 2966 2967 2967 2967 2968
2897 2904 2910 2916 2921 2925 2929 2932 2936 2940 2946 2951 2955 2958 2962 2966 2969 2972 2975 2977 2980 2985 2984 2985 2985 2985 2986 2986 2986 2985 2985 2985 2984 2985 2984 2982 2981 2980 2977 2975 2973 2972 2970 2971 2970 2970 2970 2969 2968 2969 2969 2969 2969 2969
2894 2900 2907 2913 2919 2923 2926 2929 2934 2939 2944 2949 2953 2957 2961 2964 2968 2971 2975 2977 2979 2981 2982 2982 2983 2982 2984 2983 2983 2983 2982 2981 2982 2982 2981 2980 2980 2981 2979 2977 2975 2973 2971 2970 2969 2968 2969 2969 2970 2971 2971 2970 2970 2970
2891 2897 2904 2911 2916 2921 2924 2928 2932 2938 2943 2947 2951 2955 2959 2963 2967 2971 2975 2977 2977 2980 2981 2981 2980 2979 2980 2979 2979 2980 2980 2980 2980 2980 2979 2979 2980 2980 2978 2977 2976 2975 2972 2971 2970 2970 2970 2970 2971 2972 2971 2971 2971 2970
2887 2894 2901 2908 2914 2919 2924 2928 2933 2938 2943 2947 2950 2954 2958 2962 2965 2969 2972 2974 2977 2978 2980 2979 2978 2977 2977 2976 2976 2976 2978 2978 2978 2978 2978 2978 2979 2978 2976 2975 2975 2974 2972 2972 2970 2970 2971 2972 2972 2972 2971 2971 2970 2970
2885 2892 2900 2906 2911 2918 2924 2929 2934 2938 2943 2946 2949 2953 2957 2961 2964 2968 2970 2973 2975 2979 2977 2976 2976 2976 2974 2974 2974 2975 2975 2975 2976 2975 2976 2978 2976 2976 2974 2974 2974 2973 2972 2971 2971 2971 2971 2972 2972 2971 2970 2969 2969 2968
2882 2890 2898 2904 2910 2916 2922 2928 2933 2937 2941 2944 2949 2953 2956 2960 2965 2968 2970 2971 2971 2971 2971 2970 2972 2973 2974 2973 2973 2975 2974 2974 2974 2973 2973 2973 2973 2972 2971 2971 2972 2972 2971 2971 2970 2970 2970 2970 2970 2969 2968 2967 2966 2966
2880 2888 2897 2903 2909 2915 2921 2926 2932 2937 2940 2944 2949 2954 2958 2960 2964 2966 2968 2968 2969 2969 2967 2966 2968 2970 2972 2972 2972 2973 2973 2972 2971 2971 2972 2971 2968 2969 2968 2968 2967 2968 2968 2968 2968 2968 2968 2967 2966 2965 2965 2964 2963 2963
2880 2887 2895 2902 2909 2914 2920 2925 2930 2935 2941 2947 2952 2955 2958 2960 2963 2965 2965 2966 2966 2966 2965 2964 2966 2969 2970 2971 2971 2971 2971 2971 2969 2969 2969 2968 2966 2966 2966 2965 2965 2965 2965 2966 2966 2966 2966 2965 2965 2964 2963 2962 2960 2959
2881 2888 2895 2902 2908 2912 2918 2925 2931 2937 2942 2947 2952 2955 2956 2958 2959 2959 2960 2961 2962 2961 2962 2963 2965 2967 2969 2970 2970 2970 2969 2968 2967 2966 2965 2964 2964 2964 2964 2964 2964 2963 2964 2964 2964 2963 2963 2963 2962 2961 2960 2959 2958 2957
2882 2889 2896 2903 2909 2914 2920 2926 2931 2937 2943 2947 2950 2952 2953 2953 2953 2955 2957 2958 2959 2960 2960 2961 2963 2965 2968 2969 2969 2968 2968 2966 2964 2963 2962 2962 2962 2962 2962 2962 2963 2963 2963 2963 2962 2961 2961 2960 2960 2959 2957 2957 2956 2955
2884 2891 2898 2904 2910 2916 2921 2926 2932 2937 2942 2945 2948 2949 2949 2950 2951 2952 2954 2956 2957 2959 2960 2962 2964 2965 2966 2968 2967 2967 2965 2962 2960 2958 2961 2961 2961 2961 2961 2962 2962 2962 2962 2961 2960 2959 2958 2958 2957 2957 2957 2956 2955 2955
2886 2892 2898 2905 2911 2916 2921 2926 2931 2937 2941 2943 2945 2946 2947 2948 2949 2951 2952 2954 2956 2958 2960 2962 2963 2964 2965 2965 2965 2964 2962 2960 2960 2960 2960 2960 2960 2960 2960 2959 2959 2958 2958 2958 2957 2957 2957 2957 2957 2956 2956 2956 2955 2954
2888 2893 2898 2906 2912 2917 2922 2928 2934 2938 2942 2942 2943 2945 2946 2946 2947 2948 2950 2952 2955 2958 2959 2961 2962 2962 2962 2962 2962 2961 2960 2960 2959 2959 2959 2958 2958 2958 2958 2958 2958 2957 2957 2957 2957 2957 2957 2957 2956 2956 2955 2953 2952 2951
2892 2897 2902 2907 2911 2917 2924 2931 2935 2937 2939 2940 2943 2944 2944 2945 2946 2947 2949 2951 2954 2956 2958 2960 2960 2960 2961 2961 2960 2960 2959 2959 2958 2958 2958 2957 2957 2957 2956 2957 2957 2957 2957 2957 2957 2956 2956 2955 2954 2953 2952 2950 2948 2946
2894 2899 2903 2910 2917 2921 2926 2931 2934 2936 2938 2940 2942 2943 2943 2944 2945 2946 2948 2951 2953 2955 2957 2958 2959 2958 2958 2958 2958 2958 2958 2958 2958 2957 2957 2955 2955 2955 2955 2955 2956 2956 2956 2956 2956 2956 2955 2953 2951 2949 2947 2945 2942 2939
2898 2903 2909 2914 2920 2924 2928 2931 2934 2936 2937 2939 2940 2941 2942 2942 2943 2945 2947 2949 2951 2953 2954 2955 2954 2956 2956 2956 2956 2956 2956 2956 2955 2954 2953 2952 2952 2953 2954 2955 2955 2956 2956 2955 2954 2953 2951 2950 2948 2945 2942 2939 2936 2933
2899 2905 2911 2917 2922 2926 2929 2931 2933 2935 2936 2938 2939 2940 2941 2941 2942 2943 2945 2947 2948 2948 2949 2950 2952 2953 2954 2954 2954 2954 2954 2953 2952 2952 2951 2951 2952 2953 2954 2954 2955 2954 2953 2952 2951 2950 2947 2944 2942 2939 2937 2934 2932 2929
2901 2908 2914 2919 2924 2927 2929 2931 2932 2934 2935 2935 2937 2938 2939 2939 2939 2940 2942 2943 2943 2943 2945 2947 2949 2949 2950 2951 2951 2951 2951 2950 2950 2950 2950 2951 2952 2953 2953 2953 2952 2951 2950 2949 2947 2945 2943 2940 2937 2935 2932 2928 2926 2923
2908 2914 2919 2922 2925 2927 2929 2929 2931 2932 2933 2934 2935 2936 2937 2937 2938 2939 2939 2938 2938 2941 2941 2942 2943 2945 2946 2947 2947 2947 2948 2948 2948 2948 2949 2950 2950 2951 2950 2950 2949 2948 2947 2946 2943 2941 2938 2935 2933 2929 2926 2923 2920 2917
2912 2917 2921 2922 2924 2926 2925 2926 2929 2930 2931 2932 2933 2934 2934 2935 2935 2935 2935 2934 2936 2936 2936 2937 2939 2940 2942 2942 2943 2944 2944 2945 2946 2946 2947 2948 2948 2948 2948 2947 2947 2945 2943 2941 2939 2936 2933 2930 2928 2924 2921 2919 2915 2912
2915 2918 2920 2921 2922 2925 2925 2926 2927 2929 2930 2931 2932 2932 2931 2932 2932 2931 2930 2929 2931 2931 2932 2932 2934 2936 2937 2938 2940 2941 2942 2943 2943 2944 2945 2946 2946 2945 2945 2944 2943 2942 2939 2937 2934 2932 2929 2926 2923 2919 2916 2912 2909 2905
2914 2915 2917 2917 2919 2922 2922 2923 2924 2925 2927 2928 2928 2928 2928 2928 2929 2927 2925 2926 2926 2926 2928 2929 2931 2932 2934 2936 2937 2938 2939 2940 2941 2942 2943 2943 2942 2942 2941 2941 2940 2938 2935 2932 2929 2926 2923 2920 2916 2913 2909 2905 2902 2899
2911 2911 2913 2914 2916 2918 2919 2920 2922 2922 2923 2924 2923 2924 2925 2925 2923 2922 2921 2921 2922 2923 2924 2925 2927 2928 2930 2932 2933 2935 2936 2937 2938 2939 2939 2939 2939 2938 2938 2936 2934 2933 2930 2927 2924 2921 2917 2914 2910 2907 2903 2899 2895 2892
2907 2908 2910 2912 2914 2915 2916 2917 2918 2918 2918 2919 2920 2920 2920 2919 2920 2920 2919 2919 2919 2919 2920 2921 2923 2925 2927 2929 2930 2931 2932 2933 2934 2935 2935 2936 2935 2935 2934 2932 2930 2927 2924 2921 2919 2915 2912 2908 2904 2901 2897 2893 2889 2886
2903 2905 2908 2909 2910 2911 2912 2912 2912 2913 2915 2915 2915 2914 2915 2916 2917 2917 2917 2916 2916 2916 2916 2918 2920 2922 2923 2924 2926 2928 2929 2931 2931 2932 2932 2932 2932 2931 2930 2927 2925 2922 2919 2917 2913 2910 2906 2902 2898 2895 2891 2887 2884 2880
2898 2900 2902 2904 2905 2905 2906 2907 2907 2909 2909 2909 2910 2909 2910 2911 2912 2912 2912 2913 2912 2912 2913 2914 2916 2917 2919 2921 2923 2925 2926 2927 2928 2929 2928 2928 2928 2927 2925 2922 2920 2917 2914 2911 2908 2904 2901 2897 2893 2890 2886 2882 2878 2874
2892 2894 2895 2896 2896 2898 2901 2901 2901 2902 2902 2902 2902 2902 2902 2905 2905 2906 2907 2907 2907 2908 2908 2909 2911 2913 2916 2918 2920 2922 2924 2924 2925 2925 2925 2924 2923 2922 2919 2917 2914 2912 2909 2905 2902 2899 2895 2892 2888 2885 2881 2876 2872 2867
2885 2886 2887 2888 2890 2893 2894 2894 2895 2895 2895 2895 2894 2895 2896 2896 2898 2899 2900 2901 2901 2902 2903 2905 2907 2910 2914 2916 2917 2919 2920 2921 2922 2922 2921 2920 2919 2917 2915 2912 2910 2907 2904 2901 2897 2894 2891 2887 2883 2879 2875 2870 2865 2860
2878 2879 2880 2882 2883 2884 2886 2887 2886 2887 2887 2886 2885 2886 2887 2887 2888 2892 2893 2894 2896 2898 2900 2903 2906 2908 2910 2913 2915 2916 2917 2918 2918 2918 2917 2916 2914 2912 2910 2908 2905 2902 2899 2896 2893 2890 2886 2882 2878 2874 2869 2864 2859 2854
Wind_Speed
24 22 24 23 21 20 20 18 17 18 19 18 17 15 14 12 10 8 8 10 12 13 8 9 8 12 2 3 4 8 5 7 6 8 8 10 12 19 10 4 15 11 10 10 13 9 6 13 7 8 6 3 10 15
27 25 27 21 24 22 22 19 19 19 22 21 19 17 16 13 12 10 10 11 9 9 7 9 6 3 2 6 8 5 4 8 6 7 9 12 18 12 17 2 4 1 9 10 10 7 10 15 11 6 4 9 14 14
33 27 23 27 23 21 19 17 18 21 24 22 20 19 16 13 12 14 8 12 10 8 5 5 3 3 2 2 4 2 3 5 6 8 12 13 13 17 15 10 17 9 14 8 8 9 11 15 14 8 6 8 9 9
34 34 28 23 23 19 17 16 18 20 23 22 20 18 15 14 14 16 12 10 10 6 2 0 8 10 6 3 6 6 8 10 11 10 11 12 12 12 16 15 11 15 12 7 5 6 8 11 12 7 5 3 4 5
34 34 31 26 24 19 17 17 19 22 23 20 19 18 16 15 14 14 16 10 10 8 5 6 7 6 11 7 8 9 8 14 14 9 10 13 9 13 14 7 13 16 19 10 4 6 7 7 8 5 4 6 5 5
31 34 34 25 24 20 14 16 21 22 22 19 19 17 17 15 13 12 11 13 10 7 7 4 7 14 15 18 17 16 14 11 11 12 12 9 6 12 10 8 9 20 17 13 6 3 3 3 2 1 2 4 4 4
32 33 31 29 26 20 12 15 20 21 19 17 18 17 15 14 14 12 10 7 9 7 6 9 8 7 3 9 13 12 12 11 12 12 10 8 6 9 9 7 14 15 16 7 4 3 4 3 2 1 2 4 4 5
26 38 35 25 27 20 14 15 20 19 17 17 17 15 14 15 15 15 13 10 9 6 9 5 8 12 11 11 8 12 13 12 11 10 7 8 7 7 6 8 10 13 11 5 3 2 4 4 3 3 4 4 5 7
27 35 32 27 34 25 18 16 17 19 19 16 16 15 14 14 15 12 13 12 10 11 11 13 11 9 4 5 8 9 8 9 6 10 8 5 7 6 10 10 11 10 12 4 2 2 2 1 2 4 6 7 8 8
27 36 32 27 25 23 20 19 20 18 17 18 17 14 12 13 9 10 11 11 12 15 18 20 13 9 7 5 4 4 4 6 5 7 6 12 15 18 19 19 17 15 13 11 6 5 6 7 8 10 10 10 9 8
28 35 30 26 24 21 20 23 23 22 20 19 18 9 8 9 10 9 6 5 6 6 12 14 14 10 8 4 7 5 3 3 3 4 4 3 10 8 8 10 13 14 10 10 9 9 10 11 11 9 9 9 10 10
31 33 31 28 24 24 24 26 26 25 21 23 13 11 10 12 7 7 7 6 7 6 6 7 10 12 7 6 6 5 5 3 4 7 4 4 10 8 8 9 7 5 5 6 7 8 9 9 10 10 11 12 13 13
29 31 32 29 23 21 28 27 24 22 28 18 13 15 10 8 7 8 8 7 7 8 11 9 12 13 9 7 5 2 4 5 4 4 4 6 5 5 5 4 4 3 4 5 6 7 8 9 10 11 11 12 11 11
29 30 32 27 25 25 26 25 26 31 23 15 14 14 8 6 8 8 10 7 11 6 7 8 11 8 9 4 4 4 5 5 3 4 6 5 6 6 5 3 3 4 4 6 7 7 8 9 10 9 9 10 10 9
28 28 29 26 28 26 25 25 32 31 20 9 8 7 8 10 8 4 10 10 9 7 8 8 8 6 7 5 4 6 4 5 4 2 1 3 4 4 5 4 4 6 7 7 8 8 8 7 7 7 7 7 7 7
29 29 29 31 27 25 25 32 34 29 17 7 7 7 6 8 11 9 10 10 9 8 12 10 6 4 6 5 5 4 4 3 3 4 5 5 5 4 5 6 9 10 10 9 8 7 6 6 6 6 6 7 9 10
31 31 32 30 24 24 27 32 30 24 16 8 7 6 5 5 8 9 10 11 11 13 11 8 5 6 3 4 4 6 6 7 7 7 7 7 7 8 10 11 10 8 7 6 5 4 4 4 6 8 10 13 14 16
30 29 27 27 29 30 31 29 14 17 17 15 9 6 7 7 6 8 11 12 13 14 12 8 4 4 3 3 9 7 6 6 8 6 6 8 9 9 9 8 7 6 4 3 3 4 7 9 11 13 15 17 19 18
25 26 28 31 32 26 34 24 14 12 12 13 12 9 7 8 8 10 11 14 14 15 16 11 5 6 11 10 9 8 9 10 8 9 11 10 7 6 5 4 3 2 2 4 7 9 12 14 17 19 21 22 22 25
21 30 35 33 28 25 23 14 27 10 5 8 11 7 6 8 10 11 13 15 16 16 17 19 18 12 7 8 8 8 8 8 11 12 10 7 3 3 3 2 2 4 6 9 11 14 16 18 18 20 23 24 25 25
33 39 35 26 20 24 15 14 19 18 16 11 10 9 8 9 11 11 13 15 17 21 23 20 17 16 15 14 13 12 12 12 10 8 6 4 4 4 3 4 5 8 10 13 15 16 20 23 25 25 25 24 23 23
38 39 32 22 21 20 10 13 16 12 11 10 13 11 10 9 10 12 12 15 20 22 21 21 19 19 20 17 15 13 13 12 9 6 6 5 5 4 5 6 8 11 14 16 18 21 23 24 25 25 25 26 25 25
37 36 29 19 17 17 9 13 16 13 9 8 14 14 13 11 11 10 13 16 19 16 20 19 20 18 15 15 15 14 13 11 8 8 7 6 6 6 7 9 12 14 16 17 20 23 24 25 24 26 26 26 26 27
34 30 19 18 12 9 11 16 17 14 13 11 13 15 13 13 11 13 17 20 16 16 17 20 19 18 17 16 15 14 13 10 10 9 8 7 7 8 9 11 14 16 19 21 23 24 25 25 25 26 26 26 26 27
27 19 10 12 16 8 7 11 13 13 15 13 12 12 10 10 12 15 17 20 15 19 17 18 17 17 17 17 14 13 12 11 11 10 9 8 9 10 11 13 16 17 20 22 23 24 25 24 25 25 26 26 27 26
16 7 11 10 17 16 12 10 11 13 15 14 10 10 10 12 12 9 15 14 15 15 15 15 17 17 16 14 14 13 13 13 12 10 10 10 11 12 13 16 17 18 22 23 24 25 25 25 26 26 27 28 27 26
11 10 15 17 13 14 18 18 15 13 12 12 17 15 11 6 7 13 14 12 13 14 17 18 18 18 17 14 13 13 14 14 12 12 11 11 12 13 15 18 20 22 23 24 24 25 25 26 26 27 27 27 27 27
20 22 14 15 19 16 15 14 13 13 15 16 15 12 8 9 11 10 9 10 11 13 17 20 20 17 13 14 15 17 17 16 13 12 12 12 12 14 17 19 21 23 24 24 24 25 25 26 26 26 26 27 27 27
25 21 24 22 19 18 18 18 20 21 18 16 17 19 20 19 17 14 13 11 10 11 14 17 17 15 17 17 17 18 17 14 13 13 12 13 13 15 18 20 22 23 23 23 24 25 25 25 26 26 26 26 26 27
29 26 26 25 24 24 24 22 22 16 19 20 21 23 21 20 19 18 18 17 16 15 16 18 20 21 19 19 18 17 15 14 13 13 13 13 14 17 19 21 22 23 23 24 24 24 25 25 25 25 25 26 26 27
27 30 30 28 27 27 23 22 22 22 23 24 24 26 25 22 23 22 21 20 19 14 17 21 23 22 21 20 18 16 14 14 13 13 13 13 15 18 19 21 21 22 23 23 24 25 25 25 25 26 27 28 28 30
24 26 26 28 30 27 26 26 25 25 24 24 26 27 25 25 25 25 23 22 22 20 19 21 23 21 18 17 17 15 14 13 13 12 13 14 16 18 19 20 21 22 22 23 23 24 24 25 26 27 28 30 31 32
20 21 23 23 23 23 21 21 22 22 22 22 23 22 24 26 27 24 22 23 22 18 20 20 19 21 19 17 15 13 12 12 12 12 13 15 16 18 19 20 20 21 22 22 23 24 25 26 28 29 30 32 33 33
Wind_Direction
192 189 193 195 205 218 225 222 217 208 203 199 198 202 209 211 210 203 192 177 166 172 149 185 182 194 295 35 288 295 316 333 339 331 319 343 319 318 306 90 180 188 217 227 237 241 85 45 53 110 111 314 340 331
197 197 200 199 219 222 231 238 225 211 203 202 201 202 208 205 197 197 191 179 158 164 166 151 160 145 151 216 246 263 262 332 322 344 328 324 314 302 2 38 61 110 357 32 38 65 0 14 22 11 324 312 318 326
204 201 206 207 207 223 231 226 215 205 203 202 203 204 203 200 194 190 185 181 179 181 185 187 192 196 218 356 334 328 215 241 285 303 321 325 320 333 354 6 14 31 34 42 342 4 9 11 0 348 307 287 301 323
203 198 205 206 219 221 221 211 205 202 204 205 207 205 201 198 199 196 184 187 196 198 189 120 276 249 251 281 323 308 244 235 281 318 302 311 311 334 336 338 22 18 8 41 18 13 356 11 12 6 360 352 10 39
207 203 205 207 218 222 220 211 203 201 203 208 207 205 204 202 202 198 205 199 198 210 203 218 272 266 235 264 289 316 290 261 269 291 289 303 311 323 337 327 8 3 2 13 292 311 328 338 351 350 53 64 70 40
204 197 202 209 209 217 223 209 200 196 200 206 208 208 204 202 198 197 204 216 218 230 257 279 282 267 257 268 272 295 300 287 278 287 299 300 316 331 341 334 347 344 341 341 325 287 321 325 357 357 44 38 25 23
204 202 200 194 206 205 202 194 189 187 191 193 202 205 204 198 195 185 180 205 213 224 268 316 324 299 308 280 272 252 254 275 286 292 300 312 312 299 306 294 320 341 343 341 16 115 113 109 109 55 27 24 21 20
205 200 197 191 194 195 195 186 182 185 179 194 201 201 202 197 198 197 184 181 177 243 294 273 277 287 300 274 255 232 248 267 282 282 281 283 300 272 271 295 321 339 342 331 263 314 131 118 83 50 23 351 330 316
202 197 190 193 196 193 194 189 180 176 187 194 196 193 192 199 204 194 201 213 234 263 264 267 265 286 293 251 241 230 254 257 256 258 258 273 269 240 267 288 303 328 342 313 299 186 158 261 301 299 296 296 302 304
193 192 186 178 184 191 196 199 191 183 188 192 188 185 191 194 183 190 219 245 258 257 240 243 251 263 279 250 218 215 240 231 249 260 233 236 247 252 267 276 279 283 296 302 304 255 265 292 294 301 302 306 313 314
181 188 186 191 196 200 205 194 182 180 181 175 160 142 191 191 200 211 222 209 219 240 257 262 236 224 246 243 211 216 250 231 248 239 195 257 261 285 281 284 267 274 267 273 279 282 284 296 303 307 308 305 303 303
178 180 188 195 196 197 194 186 181 181 173 158 159 186 177 164 164 185 198 205 214 230 233 268 184 209 227 240 225 220 239 247 241 237 217 237 261 282 283 271 275 274 269 271 280 281 283 288 296 298 299 301 304 306
177 180 186 188 186 184 177 176 175 172 161 157 179 193 168 185 192 191 208 206 204 230 212 208 187 195 213 223 254 249 243 238 252 222 215 247 275 274 270 276 271 284 282 283 286 293 295 299 303 307 312 313 313 312
173 176 178 176 172 166 166 176 171 161 163 176 181 190 188 200 203 211 198 215 213 232 224 204 197 196 212 223 243 259 249 261 244 224 215 258 285 283 273 268 276 291 312 315 314 317 322 322 318 321 323 321 319 319
170 174 179 182 175 173 174 175 164 161 162 160 170 191 216 218 217 227 215 220 222 223 189 167 170 190 198 215 215 256 258 236 238 193 242 290 284 262 254 266 282 298 309 315 321 321 320 320 327 331 328 324 320 316
169 171 175 172 174 182 183 176 173 170 187 174 189 199 221 241 225 226 215 212 204 191 171 170 175 204 207 212 229 239 289 295 318 333 326 323 306 286 293 305 313 314 311 311 314 318 324 331 331 324 318 316 315 313
167 168 170 176 179 177 173 173 168 180 194 199 209 224 277 242 226 218 205 196 190 182 185 187 205 215 205 210 230 233 242 301 309 313 309 305 296 288 288 291 291 292 296 299 300 307 307 307 312 315 315 314 312 310
168 170 177 176 167 162 162 164 173 197 210 219 220 254 259 241 232 206 191 189 192 197 188 210 221 227 212 236 246 273 284 296 308 312 316 304 288 280 278 277 274 268 258 261 295 310 311 311 312 313 314 313 312 311
168 175 171 162 163 165 175 177 170 184 207 208 217 252 255 241 227 204 201 201 205 210 211 223 236 225 243 256 271 277 282 292 287 289 297 297 278 256 242 225 210 223 281 303 309 312 314 316 317 319 319 320 318 317
164 158 151 153 150 169 176 188 196 191 206 233 221 243 279 243 217 208 207 207 208 212 219 227 232 245 266 270 280 276 279 287 291 293 293 287 250 208 189 205 271 292 303 312 316 318 318 318 320 318 318 319 318 317
155 163 157 149 167 183 187 203 212 223 240 259 220 234 271 243 219 213 211 213 216 221 227 235 241 247 256 265 270 275 283 294 294 290 271 220 200 205 227 262 289 308 314 317 320 322 320 320 320 319 317 316 313 313
162 166 159 158 173 177 194 213 201 213 222 221 214 247 248 236 224 222 224 225 229 236 241 245 247 252 256 261 264 270 279 286 285 259 216 212 222 241 272 295 308 315 318 319 318 318 318 319 316 316 315 315 314 313
161 166 168 173 179 190 213 204 205 216 213 213 217 240 248 244 240 232 231 238 242 241 245 247 246 251 254 252 257 263 269 273 260 222 215 229 247 269 291 307 313 313 313 316 316 317 317 316 316 313 314 313 312 312
169 169 179 182 199 212 214 194 206 212 213 225 220 226 239 241 246 244 248 254 252 256 256 251 249 245 246 251 252 256 264 259 228 221 232 247 267 287 300 308 310 311 312 316 316 315 315 314 313 313 312 311 310 310
168 165 179 195 200 213 199 197 209 217 221 224 231 236 245 247 246 252 257 264 263 253 253 247 239 238 241 245 248 255 252 232 222 232 248 266 278 289 300 306 308 310 312 313 314 313 312 312 311 311 311 311 312 312
182 181 193 205 211 218 228 232 236 234 235 237 242 250 256 250 249 252 262 278 253 247 237 236 232 236 240 240 241 245 236 220 225 241 255 267 279 292 301 304 307 311 312 314 314 314 314 315 315 315 314 314 314 314
203 207 216 214 215 227 234 242 246 240 243 240 252 250 245 236 243 255 270 273 255 239 231 229 229 231 234 235 238 236 224 223 233 244 257 269 283 294 302 307 311 314 316 315 315 314 314 315 315 315 315 315 315 316
222 219 220 217 224 233 239 245 246 246 245 245 245 234 223 221 251 264 275 282 265 248 237 230 230 235 232 231 226 220 221 227 237 251 263 276 288 298 304 308 312 315 315 315 315 315 316 316 316 317 317 317 317 317
226 227 229 236 243 248 253 249 246 250 255 253 249 249 247 252 256 263 272 281 275 255 237 229 227 223 224 226 225 223 227 235 247 258 269 281 292 299 306 310 313 315 315 315 317 317 318 319 319 319 320 319 319 319
232 235 239 243 249 251 253 254 260 263 258 261 262 262 259 256 259 261 264 265 267 261 245 228 222 221 220 219 220 224 232 243 254 264 276 286 296 305 310 313 315 315 317 319 320 321 321 321 322 322 321 320 320 320
237 238 241 243 245 250 253 256 258 260 262 265 265 262 261 256 256 257 259 261 261 267 242 227 222 221 221 220 221 228 239 250 260 270 282 293 303 309 313 315 316 318 320 321 323 324 324 325 324 323 323 323 323 322
234 234 238 242 246 248 251 253 256 259 262 262 259 260 257 253 249 248 249 249 248 246 236 223 221 222 222 220 224 232 244 256 265 276 287 299 307 312 314 316 318 321 322 323 325 325 325 325 325 325 326 326 326 325
235 235 239 243 246 246 249 254 256 258 258 260 262 252 246 244 243 242 242 240 241 240 231 224 219 218 219 223 230 239 250 261 271 282 294 304 309 313 316 318 321 323 324 325 326 327 327 328 328 328 329 329 329 328